RH
22 22 22 22 22 23 24 22 45 64 69 67 65 74 68 49 50 49 38 40 46 53 59 58 53 54 50 50 48 46 46 56 78 68 67 62 42 57 62 71 71 53 69
23 24 26 27 30 33 37 43 53 63 62 59 62 63 63 47 41 36 37 42 48 54 51 54 55 51 54 55 53 53 61 67 87 88 84 80 60 62 54 65 68 72 56
25 28 31 34 37 41 46 53 58 60 59 59 71 64 38 37 36 36 39 46 54 51 55 58 55 64 67 62 62 72 71 87 95 98 95 89 80 66 64 57 56 62 61
30 33 36 39 44 47 50 58 72 75 76 66 55 50 36 34 41 40 48 52 52 55 60 64 68 79 74 74 87 80 82 83 91 91 93 95 89 74 64 55 50 47 41
33 36 40 43 45 48 55 64 75 84 80 77 62 35 40 40 45 52 54 56 62 69 76 83 93 93 88 94 81 85 85 94 94 93 88 82 93 84 63 63 56 48 44
36 39 42 45 47 49 56 66 77 79 60 52 46 49 41 52 55 55 60 71 82 93 88 94 94 91 86 85 87 84 85 90 92 96 90 89 87 97 97 85 68 67 58
38 40 44 51 50 53 65 71 77 78 74 71 68 56 56 55 54 50 50 58 76 83 85 76 78 81 86 91 86 91 88 95 97 97 98 93 96 94 88 92 83 73 68
38 42 46 52 53 60 68 72 70 75 78 76 66 61 54 50 46 45 52 68 79 79 74 82 87 93 93 89 96 97 93 94 92 91 92 90 91 95 95 84 85 85 80
40 43 47 53 55 58 67 69 59 64 72 59 59 53 49 46 47 57 81 84 85 77 83 84 94 93 91 92 93 98 96 92 86 88 86 89 93 96 96 100 97 96 86
42 46 48 52 55 59 64 57 45 45 44 58 57 51 49 49 49 64 85 85 84 90 87 91 90 94 90 88 96 98 98 97 98 96 95 81 82 78 80 87 96 98 96
50 50 51 54 58 57 56 54 52 50 60 58 54 52 53 53 54 67 85 85 87 94 88 87 90 98 81 77 94 92 97 96 98 98 100 97 95 93 88 79 70 78 98
57 61 61 62 64 56 59 53 48 57 60 54 56 56 59 58 59 66 88 88 85 85 76 89 93 88 83 87 91 95 99 90 92 93 93 97 99 96 95 96 93 85 73
60 70 66 67 68 59 63 56 56 59 55 58 60 60 64 63 62 71 83 85 75 81 78 85 90 85 79 74 90 100 90 93 97 98 98 99 98 97 96 97 95 95 98
81 78 77 73 68 61 63 61 58 57 60 62 65 64 69 68 65 73 90 82 78 78 80 70 73 70 62 70 71 76 81 94 98 98 99 96 96 96 97 97 97 97 98
94 93 87 86 72 74 62 59 66 68 64 64 67 70 72 74 69 71 91 84 82 81 60 70 77 78 71 74 76 77 79 74 91 95 95 95 96 96 97 97 97 97 97
85 87 88 99 99 99 74 68 67 66 66 70 73 74 75 78 74 74 91 86 80 78 63 75 84 88 86 82 90 84 77 65 80 96 95 96 97 97 97 96 96 96 97
78 81 82 85 100 99 94 74 67 69 69 74 72 74 76 78 79 77 87 88 78 75 74 76 78 88 92 83 87 86 90 65 77 95 96 96 96 94 95 99 95 95 97
82 88 90 90 97 95 98 98 90 85 78 80 76 78 76 80 86 86 86 90 80 80 76 81 83 78 85 90 85 87 76 53 65 93 95 96 96 97 94 97 97 97 92
96 96 94 83 70 70 82 100 98 92 85 88 81 82 80 81 90 97 94 80 77 84 80 79 83 85 80 83 82 79 68 56 53 79 95 95 94 95 95 96 92 83 84
98 96 96 83 71 69 79 89 95 95 91 96 83 75 78 79 87 83 86 87 84 88 85 81 82 85 86 80 80 74 78 57 46 46 85 92 90 87 95 89 95 84 76
94 99 99 98 85 74 72 82 78 76 84 95 86 72 78 86 86 81 80 87 89 89 88 85 88 88 87 83 79 71 79 74 54 49 60 87 85 80 87 86 89 83 76
98 100 96 97 98 90 71 70 82 74 78 84 90 75 79 82 87 86 84 88 88 88 87 89 90 93 87 86 81 71 73 71 46 40 44 77 78 78 75 83 82 84 77
80 93 94 98 99 98 93 84 84 81 76 76 88 86 78 79 78 80 89 89 80 77 75 85 89 92 89 88 85 76 69 75 52 37 35 71 82 77 78 79 78 77 75
78 90 100 99 99 98 96 85 81 80 73 74 77 87 86 78 78 79 78 79 83 84 84 85 88 90 89 89 88 85 71 78 67 42 36 62 82 82 77 76 71 70 71
88 100 100 99 99 98 98 97 91 91 89 95 86 79 81 85 80 81 84 86 82 82 84 81 86 91 90 90 88 88 78 85 78 51 42 52 70 85 82 76 81 71 75
99 100 100 100 99 98 98 98 98 97 97 97 97 97 90 81 81 82 84 84 83 83 80 86 90 91 93 92 88 89 85 88 80 64 57 50 48 66 78 67 88 85 78
Wind_Speed
13 14 16 17 19 22 24 23 20 12 7 10 10 12 8 12 12 12 13 14 15 13 10 10 12 15 19 19 19 20 23 23 15 24 25 28 28 23 14 14 19 18 7
10 11 12 14 17 20 22 20 17 8 10 11 10 11 17 13 10 11 13 14 13 12 11 12 17 21 20 19 19 21 23 24 21 21 24 25 26 15 12 13 14 18 16
7 8 10 14 17 19 20 19 16 12 8 12 17 12 9 11 11 11 13 13 12 11 14 19 21 20 20 20 21 22 24 21 23 16 20 23 26 27 18 16 12 9 11
6 8 11 15 17 20 20 18 17 18 18 13 11 11 11 12 12 11 11 10 12 16 19 20 20 21 20 21 21 20 19 24 22 18 16 18 20 24 17 11 10 7 7
8 9 12 16 18 20 21 18 17 16 14 15 15 8 11 11 10 8 9 13 17 20 21 22 22 19 21 21 21 21 23 20 18 19 15 15 13 10 5 6 6 7 10
11 12 14 17 19 22 22 19 17 12 12 10 10 12 9 3 5 7 11 16 20 19 22 20 21 20 18 19 23 23 22 23 20 18 17 15 15 12 13 8 7 4 2
13 15 16 17 20 23 20 17 15 14 17 15 17 8 1 5 9 11 14 17 17 17 17 21 21 17 20 21 22 22 24 20 18 20 15 16 15 14 13 13 13 9 8
16 18 18 17 21 24 20 18 18 18 17 13 9 2 4 7 10 14 16 16 17 19 18 17 19 18 19 19 24 20 19 20 18 14 16 18 18 17 21 20 17 15 16
18 20 19 17 22 23 19 18 18 16 13 6 4 3 5 7 11 12 12 15 16 17 16 18 15 17 18 21 23 21 18 19 16 17 17 17 18 18 17 13 19 13 11
20 21 19 17 22 20 17 16 12 7 7 8 6 2 3 7 10 11 10 12 14 17 20 17 15 16 19 20 20 18 18 14 16 15 13 16 16 19 18 18 18 8 9
18 21 20 19 20 17 16 14 14 10 8 7 4 2 4 7 9 9 9 11 14 16 18 19 18 17 20 19 18 18 17 17 14 13 11 11 13 13 14 18 23 22 16
20 22 21 23 20 15 15 12 8 7 8 6 4 4 4 5 7 8 9 9 12 13 17 16 17 17 17 16 15 17 16 15 15 15 14 12 12 13 12 12 13 18 23
22 20 23 23 15 13 13 9 7 7 7 6 8 8 7 5 5 7 9 10 14 12 14 13 14 15 15 14 15 14 14 16 16 15 14 14 14 14 13 12 12 14 15
18 17 21 15 10 10 10 9 8 7 8 11 11 10 8 7 6 6 8 11 14 14 14 13 13 14 14 14 16 16 16 16 15 15 16 17 14 12 11 8 9 9 14
16 17 19 14 10 8 8 8 7 6 9 13 12 10 11 10 7 7 8 10 12 14 14 12 14 17 19 18 19 18 19 19 18 19 18 18 16 15 13 11 4 4 8
16 15 18 17 16 12 11 11 8 7 7 9 11 12 11 10 7 7 7 7 10 12 12 12 13 14 16 17 18 19 19 20 18 17 17 17 16 16 15 15 13 10 6
17 17 18 16 15 13 14 16 11 9 9 8 10 11 12 10 9 7 8 8 9 10 11 11 12 13 14 15 15 16 17 18 15 14 15 17 16 14 15 14 15 13 12
15 15 15 16 11 12 15 18 16 16 12 11 11 10 12 12 11 10 8 10 11 10 10 11 12 13 13 13 13 14 15 16 15 13 14 14 15 14 14 14 13 12 12
15 16 16 14 14 18 13 15 16 17 16 14 13 12 12 13 13 12 12 13 13 13 11 11 10 11 12 12 12 11 11 13 12 11 12 13 13 13 12 12 13 11 10
16 15 14 13 12 8 8 12 15 17 18 17 17 14 13 12 14 16 16 15 16 15 13 13 11 11 12 11 11 11 11 11 10 11 10 11 11 11 11 12 11 11 12
19 17 17 16 16 16 16 16 16 15 17 20 19 15 14 16 17 16 15 16 16 16 14 13 12 11 11 11 11 10 10 11 10 10 10 10 11 12 11 11 11 9 12
18 16 20 21 21 21 19 20 20 18 17 18 20 17 15 17 18 18 19 18 16 15 14 15 14 12 10 11 11 11 9 10 10 10 9 9 10 11 11 11 11 10 12
19 21 23 22 22 23 21 20 20 21 20 19 20 22 21 20 19 19 20 17 15 14 14 15 14 13 11 10 10 10 10 9 10 10 10 9 10 10 11 11 10 10 12
20 21 22 22 20 21 21 21 20 21 21 22 22 23 25 24 22 21 18 15 15 16 15 15 14 13 12 12 10 10 9 9 9 9 9 8 9 9 9 9 9 9 9
22 20 22 21 20 21 23 23 25 27 29 29 28 27 27 27 26 24 21 19 18 17 16 15 15 13 12 12 11 10 9 8 9 8 8 8 8 7 9 7 7 8 8
20 19 20 21 21 22 23 26 27 28 28 29 30 31 29 30 31 29 23 20 20 19 18 16 16 15 14 12 12 11 9 8 8 8 8 8 7 7 7 8 6 6 6
Wind_Direction
29 18 10 3 358 352 348 345 336 305 231 201 230 271 274 289 292 283 298 296 297 290 283 288 299 311 311 304 300 302 303 298 284 290 286 285 292 286 272 267 304 356 342
20 9 1 355 353 351 347 346 341 274 246 266 261 294 299 293 285 290 294 293 288 286 292 298 309 316 307 301 300 305 308 303 285 282 284 283 287 255 254 300 271 293 356
351 348 352 353 348 345 342 340 330 300 285 289 299 289 293 285 284 289 294 287 285 296 305 310 310 306 299 299 306 309 307 298 298 298 294 286 278 271 262 256 261 258 288
316 333 346 346 342 342 340 328 312 300 305 312 297 307 291 291 283 286 290 302 309 306 307 307 304 305 301 302 305 303 302 302 299 291 296 308 290 268 254 237 247 265 280
298 319 336 340 340 338 332 324 315 310 300 307 309 307 303 300 295 318 321 316 312 309 309 310 307 305 300 301 302 305 303 292 293 294 285 291 306 298 249 254 252 282 296
293 314 330 332 332 333 328 324 311 314 317 320 326 320 312 310 322 317 315 311 314 314 313 314 314 312 309 306 304 301 298 296 287 287 288 282 278 292 308 294 287 293 293
293 308 313 318 325 325 321 317 315 307 316 301 328 313 281 341 336 330 324 323 322 322 321 318 320 312 314 317 314 306 304 300 295 285 292 284 274 270 277 278 269 264 257
290 297 306 310 318 319 315 311 309 302 302 287 286 249 339 338 337 334 334 331 328 327 327 327 322 324 321 316 308 318 316 309 290 284 282 289 290 287 270 267 272 273 272
292 299 302 304 315 319 313 312 310 295 287 251 219 261 322 344 342 341 334 326 328 332 332 332 329 323 325 321 322 319 314 307 292 283 280 278 278 277 278 269 252 246 260
293 305 300 302 311 310 307 303 307 289 248 201 193 236 329 347 345 344 341 329 331 332 334 333 333 330 328 330 330 336 318 323 323 310 295 294 285 276 267 257 260 241 233
313 307 297 296 305 301 300 297 289 272 208 196 201 249 323 340 348 350 345 334 334 329 330 333 335 333 333 331 331 334 335 333 330 326 318 308 304 288 276 262 252 249 242
309 304 301 302 298 294 295 294 277 218 192 195 238 267 291 320 341 344 339 338 334 330 335 334 336 333 335 335 332 332 341 340 344 338 329 317 310 305 296 279 261 248 247
312 308 311 308 281 287 291 277 232 201 204 241 252 258 263 283 317 332 339 338 340 332 338 334 336 340 343 347 346 344 352 356 349 340 330 322 319 313 303 287 263 251 250
310 315 323 311 272 281 288 260 229 215 251 257 253 251 257 266 291 323 339 332 336 335 334 333 339 348 357 0 1 1 1 360 355 346 339 343 344 338 322 296 278 253 240
308 315 324 311 266 276 268 219 218 275 284 273 265 261 258 262 286 319 322 321 335 335 334 335 344 355 360 3 3 5 3 3 3 3 1 358 1 8 9 11 342 295 234
320 310 315 309 290 248 241 230 242 289 288 276 269 265 264 260 274 304 299 305 329 335 343 337 340 347 352 355 353 356 2 1 0 1 8 9 6 12 12 18 23 26 44
316 310 314 305 294 247 237 231 241 270 274 272 278 265 261 260 261 284 282 297 315 327 334 336 333 335 340 348 350 353 352 359 357 4 9 13 13 17 25 21 26 26 20
310 298 302 306 294 283 250 238 247 265 256 275 278 265 262 258 256 265 276 280 295 304 316 318 328 334 333 337 341 344 347 354 2 6 10 13 16 18 20 19 18 16 13
309 301 301 295 295 295 268 242 251 270 256 266 271 269 266 258 255 257 265 267 285 295 301 305 313 323 328 330 336 339 343 350 356 1 8 11 12 11 12 12 11 17 12
305 301 291 280 283 270 246 258 264 275 262 261 267 275 266 258 253 261 264 271 278 284 289 291 302 309 319 323 332 334 346 350 355 360 1 6 8 8 4 360 1 0 359
302 294 291 268 259 253 268 268 269 268 275 264 264 274 265 264 266 269 273 271 275 280 283 283 289 297 307 316 319 326 328 345 348 352 354 357 0 0 359 358 358 360 360
304 293 299 291 263 252 264 270 264 262 264 268 266 262 261 262 265 267 272 270 272 274 274 274 279 286 291 303 311 317 316 331 341 343 347 351 355 356 357 357 0 0 360
304 297 298 292 276 251 262 262 259 259 267 272 267 257 260 259 261 270 275 262 261 258 265 265 271 276 277 285 296 304 307 316 329 334 339 340 347 351 355 355 355 355 358
305 301 293 293 287 259 258 264 263 260 265 270 270 262 258 259 258 263 262 258 254 258 261 262 265 270 272 274 280 292 298 301 315 322 326 326 333 341 343 348 352 354 357
299 290 285 294 284 269 259 264 269 270 266 264 271 268 263 257 255 255 255 254 255 257 254 259 258 259 262 268 269 279 286 286 302 310 315 313 317 323 333 331 343 355 1
298 296 290 293 292 276 267 266 267 273 272 272 272 267 267 261 253 251 249 251 255 252 251 253 254 252 253 261 259 267 270 275 289 299 303 303 305 310 316 329 314 331 351